Location: Champaign/Urbana Astronomical Society Observatory
(40.0333°N, 88.2833°W)
Time: 00:21:42
(UTC-05:00)

AIST 2D - Pass Details

Date: 28 May 2019
Orbit: 456 x 473 km, 97.2° (Epoch: 18 June)

Event Time Altitude Azimuth Distance (km) Brightness Sun altitude
Rises 22:58:55 0° 28° (NNE) 2,496 ? -23.1°
Reaches altitude 10° 23:01:25 10° 47° (NE) 1,612 ? -23.4°
Enters shadow 23:01:54 12° 53° (NE) 1,471 ? -23.4°
